This demonstration page uses our WeatherBlox Daily Observations layout. Learn more.

Left ArrowRight Arrow

Hourly Observations for November 11, 2016

Temp ( °F °C ) Dew Point ( °F °C ) Humidity (%) Winds ( mph kmh ) Pressure ( in mb ) Visibility ( mi km ) Precip ( " mm )
12:59 am 00:59 Clear 50 10 36 2.2 59 59 SW 10 17 29.92 1013 10 16 0.00 0.00
1:59 am 01:59 Clear 50 10 36 2.2 59 59 SW 12 19 29.91 1013 10 16 0.00 0.00
2:59 am 02:59 Clear 49 9.4 36 2.2 61 61 SW 8 13 29.88 1012 10 16 0.00 0.00
3:59 am 03:59 Clear 49 9.4 36 2.2 61 61 SW 6 9 29.87 1011 10 16 0.00 0.00
4:59 am 04:59 Clear 49 9.4 36 2.2 61 61 WSW 7 11 29.88 1012 10 16 0.00 0.00
5:59 am 05:59 Clear 49 9.4 36 2.2 61 61 WSW 5 7 29.87 1011 10 16 0.00 0.00
6:59 am 06:59 Sunny 43 6.1 36 2.2 76 76 SW 3 6 29.89 1012 10 16 0.00 0.00
7:59 am 07:59 Sunny 50 10 38 3.3 63 63 W 10 17 29.91 1013 10 16 0.00 0.00
8:59 am 08:59 Sunny 53 11.7 39 3.9 59 59 WNW 8 13 29.92 1013 10 16 0.00 0.00
9:59 am 09:59 Mostly Sunny 57 13.9 38 3.3 49 49 W 8 13 29.92 1013 10 16 0.00 0.00
10:59 am 10:59 Mostly Sunny 62 16.7 39 3.9 43 43 WNW 6 9 29.93 1013 10 16 0.00 0.00
11:59 am 11:59 Mostly Sunny 66 18.9 41 5 40 40 NNW 13 20 29.90 1013 10 16 0.00 0.00
12:59 pm 12:59 Mostly Sunny 68 20 43 6.1 40 40 NNW 14 22 29.88 1012 10 16 0.00 0.00
1:59 pm 13:59 Partly Cloudy 67 19.4 45 7.2 45 45 NNW 14 22 29.89 1012 10 16 0.00 0.00
2:59 pm 14:59 Mostly Cloudy 65 18.3 45 7.2 49 49 NNW 8 13 29.90 1012 10 16 0.00 0.00
3:59 pm 15:59 Partly Cloudy 64 17.8 41 5 43 43 NNW 14 22 29.92 1013 10 16 0.00 0.00
4:59 pm 16:59 Partly Cloudy 60 15.6 41 5 50 50 N 7 11 29.95 1014 10 16 0.00 0.00
5:59 pm 17:59 Mostly Clear 57 13.9 45 7.2 64 64 N 7 11 29.99 1016 10 16 0.00 0.00
6:59 pm 18:59 Mostly Clear 57 13.9 44 6.7 62 62 N 6 9 30.03 1017 10 16 0.00 0.00
7:59 pm 19:59 Mostly Clear 53 11.7 44 6.7 72 72 NNW 8 13 30.05 1018 10 16 0.00 0.00
8:59 pm 20:59 Mostly Clear 56 13.3 42 5.6 60 60 NNW 12 19 30.07 1018 10 16 0.00 0.00
9:59 pm 21:59 Mostly Clear 57 13.9 39 3.9 51 51 NNW 15 24 30.09 1019 10 16 0.00 0.00
10:59 pm 22:59 Mostly Clear 57 13.9 41 5 55 55 NNE 21 33 30.11 1020 10 16 0.00 0.00
11:59 pm 23:59 Mostly Clear 55 12.8 38 3.3 53 53 NNE 20 31 30.14 1021 10 16 0.00 0.00

Powered by AerisWeather